User: anonymous   Login
Location: Mentone
(34.5413°N, 85.5351°W)
Time: 07:45:21
(UTC-05:00)
Language:

Transit 2A Rocket - Orbit

View from above orbital plane
View from above orbital plane
View from above satellite
View from above satellite

Ground track
Ground track

The orbit data is extracted from the following two-line orbital elements,

1 00047U 60007C   14296.36895760  .00001557  00000-0  37651-3 0  3414
2 00047 066.6666 272.2763 0228903 011.0409 349.5595 14.41262887837558
Epoch (UTC): 23 October 2014 08:51:17
Eccentricity: 0.0228903
inclination: 66.6666°
perigee height: 591 km
apogee height: 917 km
right ascension of ascending node: 272.2763°
argument of perigee: 11.0409°
revolutions per day: 14.41262887
mean anomaly at epoch: 349.5595°
orbit number at epoch: 83755

The dashed part of the orbit path shows where the satellite is in the earth's shadow,  

DLR